This is the latest recevied weather packets stored in our database for station/object OK2ILA-10. If no packets are shown the sender has not sent any weather packets the latest 10 day(s).
| Time | Temp. | Humidity | Pressure | Rain* | Wind** | Luminosity | Snow |
|---|---|---|---|---|---|---|---|
| 1777461991 | 8.89° C | 46% | 1025.9 hPa | - | - | - | - |
| 1777461395 | 10.56° C | 44% | 1026 hPa | - | - | - | - |
| 1777461391 | 10.56° C | 44% | 1026 hPa | - | - | - | - |
| 1777460794 | 10° C | 45% | 1026.1 hPa | - | - | - | - |
| 1777460790 | 10° C | 45% | 1026.1 hPa | - | - | - | - |
| 1777460194 | 10.56° C | 45% | 1026.2 hPa | - | - | - | - |
| 1777460190 | 10.56° C | 45% | 1026.2 hPa | - | - | - | - |
| 1777459594 | 10.56° C | 45% | 1026.2 hPa | - | - | - | - |
| 1777459590 | 10.56° C | 45% | 1026.2 hPa | - | - | - | - |
| 1777458994 | 10.56° C | 47% | 1026.2 hPa | - | - | - | - |
| 1777458990 | 10.56° C | 47% | 1026.2 hPa | - | - | - | - |
| 1777458394 | 10° C | 45% | 1026.4 hPa | - | - | - | - |
| 1777458389 | 10° C | 45% | 1026.4 hPa | - | - | - | - |
| 1777457793 | 11.11° C | 45% | 1026.2 hPa | - | - | - | - |
| 1777457789 | 11.11° C | 45% | 1026.2 hPa | - | - | - | - |
| 1777457193 | 11.11° C | 46% | 1026.2 hPa | - | - | - | - |
| 1777457189 | 11.11° C | 46% | 1026.2 hPa | - | - | - | - |
| 1777456593 | 12.22° C | 45% | 1026.1 hPa | - | - | - | - |
| 1777456589 | 12.22° C | 45% | 1026.1 hPa | - | - | - | - |
| 1777455988 | 13.33° C | 44% | 1026.1 hPa | - | - | - | - |
| 1777455392 | 13.33° C | 44% | 1026.1 hPa | - | - | - | - |
| 1777455388 | 13.33° C | 44% | 1026.1 hPa | - | - | - | - |
| 1777454792 | 14.44° C | 44% | 1026.1 hPa | - | - | - | - |
| 1777454788 | 14.44° C | 44% | 1026.1 hPa | - | - | - | - |
| 1777454192 | 13.33° C | 45% | 1026.1 hPa | - | - | - | - |
* Rain since midnight (hover to see other rain measurements)
** Current wind speed in m/s (hover to see current wind gust speed)